Zurück zum Katalog

ARIANE 2 DEB

LostGTO
NORAD 33580·DEBRIS·🇫🇷 France

Gestartet Jan 27, 1989 von Guiana Space Centre

Loading…

TLE

VeraltetSource: Space-Track

Epoche: Mar 8, 2017, 20:21 UTC

1 33580U 89006BY  17067.84808943 -.00000349  00000-0  00000+0 0  9993
2 33580   9.1759 351.9852 7147554 293.3974   9.7092  2.27693842 97012

Verfolge ARIANE 2 DEB in Echtzeit mit AllMySat

Download on the App Store